Location: Murphys Corner
(39.1062°N, 77.8244°W)
Time: 19:27:17
(UTC+00:00)

Envisat - Pass Details

Date: 08 February 2023
Orbit: 763 x 765 km, 98.2° (Epoch: 24 March)

Event Time Altitude Azimuth Distance (km) Brightness Sun altitude
Rises 09:17:43 0° 12° (NNE) 3,239 6.5 -34.0°
Reaches altitude 10° 09:20:01 10° 12° (NNE) 2,308 5.7 -33.6°
Enters shadow 09:20:39 14° 12° (NNE) 2,064 5.4 -33.5°
